Wind_Speed
17 16 17 18 20 21 19 20 19 19 19 18 20 19 19 19 19 18 17 16 15 15 14 14 14 13 13 13 14 13 13 12 13 13 14 16 16 16 12 13 13 15 16
22 18 20 21 20 21 21 19 19 18 18 19 17 18 18 17 18 17 16 15 14 14 13 13 13 12 12 12 12 13 12 12 12 13 14 15 16 15 11 11 15 16 15
23 22 22 22 20 19 20 19 18 18 17 18 17 14 16 16 16 15 14 14 13 13 12 12 11 11 10 11 13 12 12 13 12 12 12 12 16 15 16 17 16 16 16
25 21 24 22 21 20 21 18 18 17 17 16 15 15 16 16 15 14 12 13 13 12 11 10 10 9 9 10 12 12 12 15 14 8 13 12 13 14 15 16 16 16 16
25 23 23 23 22 21 19 19 16 17 15 16 12 15 14 14 15 13 12 12 12 11 10 9 9 8 7 7 9 11 9 12 10 8 14 16 15 15 16 15 16 15 14
28 24 22 22 22 21 19 17 17 15 15 14 13 13 14 13 13 12 12 12 12 11 11 10 9 8 8 7 9 13 10 10 13 20 21 15 18 16 16 15 15 14 14
27 26 23 23 22 20 18 17 16 14 13 12 13 12 12 12 11 11 12 11 12 12 11 11 9 8 8 8 10 11 11 12 15 15 14 16 17 16 14 13 13 13 13
28 27 23 22 22 19 17 16 15 13 12 12 11 10 11 11 10 10 11 11 11 11 10 10 9 8 8 8 9 10 9 8 13 14 17 17 16 15 15 14 14 13 13
26 27 24 22 20 17 17 16 14 12 12 11 10 9 8 9 10 9 9 10 10 10 9 8 8 7 8 8 9 9 11 10 14 13 17 17 16 15 15 14 14 13 13
30 25 24 22 20 18 17 14 13 12 12 11 10 9 8 6 6 8 8 8 8 8 8 7 6 6 7 8 11 12 12 9 16 13 15 16 15 16 15 14 14 13 12
30 26 24 22 19 16 15 14 13 12 11 11 10 8 5 4 4 4 6 5 7 6 6 5 5 5 3 5 9 10 10 13 15 12 15 15 15 15 14 14 13 13 12
30 30 26 23 21 17 14 14 13 12 11 11 6 5 3 5 3 3 4 4 6 4 2 2 3 1 3 3 6 9 9 12 14 9 15 15 14 14 13 13 13 13 12
31 31 29 26 22 20 17 14 13 12 11 11 8 4 7 4 5 6 7 6 3 4 5 3 7 2 1 6 6 8 9 10 8 10 14 14 13 14 13 12 11 12 11
29 32 33 29 23 25 20 15 15 15 13 14 13 6 10 7 7 6 8 7 6 5 4 2 3 4 4 8 3 7 15 15 12 9 13 12 12 13 12 11 10 10 10
29 35 39 34 28 25 24 16 16 16 18 15 14 9 10 2 5 11 12 9 6 5 4 5 4 4 3 7 10 15 20 19 12 13 12 11 12 11 12 11 10 9 9
29 34 40 37 32 26 23 17 16 14 17 15 19 15 12 4 8 7 7 5 5 5 2 5 3 2 3 5 7 8 22 15 14 12 12 10 11 10 9 10 10 10 8
32 37 43 38 33 28 21 12 14 6 9 17 13 17 13 9 8 6 7 8 2 5 8 4 2 2 6 3 3 8 14 11 13 14 13 11 10 9 10 10 9 9 10
26 40 42 37 35 29 26 15 15 10 8 8 13 14 14 12 7 8 10 7 8 6 5 8 3 4 5 5 4 7 10 13 10 14 9 12 12 9 8 9 10 8 9
30 43 41 36 37 31 29 23 18 14 10 7 16 15 10 14 12 8 6 7 7 6 10 9 5 6 7 7 4 9 10 9 14 16 11 14 11 9 10 9 7 8 8
42 44 41 38 36 33 29 25 20 18 13 10 7 18 15 14 12 8 4 5 8 4 7 6 6 9 8 5 11 11 13 9 8 15 16 16 12 11 9 9 8 6 6
43 42 43 35 37 34 31 27 22 23 20 15 14 9 19 16 14 11 6 7 5 8 9 7 7 6 7 11 9 9 9 5 8 8 20 16 13 13 9 8 6 5 7
38 42 42 35 38 37 35 32 29 24 23 18 17 12 18 17 14 12 10 8 9 9 11 9 7 4 6 7 6 6 2 1 4 9 13 18 15 16 10 9 10 10 7
36 41 43 41 36 39 35 31 28 23 22 23 23 20 21 19 15 14 12 11 13 12 11 11 9 6 9 9 7 5 2 2 3 7 13 18 18 17 15 13 11 10 8
35 40 43 43 40 36 36 33 31 27 23 26 29 25 23 21 19 17 17 14 12 12 11 12 12 10 8 11 7 5 5 5 3 1 9 17 21 17 17 13 11 13 9
36 38 42 45 41 38 37 36 34 30 27 22 19 27 25 24 23 22 20 17 15 12 10 13 13 11 10 11 11 10 8 6 4 3 2 8 14 14 15 17 15 15 13
35 37 38 41 40 41 41 37 37 31 31 23 25 22 26 26 27 23 21 20 18 17 15 13 15 14 11 10 8 12 12 7 7 5 2 7 12 16 17 18 20 19 17
Wind_Direction
146 131 122 123 125 124 112 108 106 100 99 93 89 91 90 87 88 89 93 93 99 103 100 100 99 95 82 77 71 84 89 89 89 92 98 102 101 100 107 118 105 102 101
146 132 124 126 129 126 114 114 111 109 103 97 95 94 92 92 89 91 94 99 104 104 102 101 100 95 81 77 76 85 88 94 89 88 93 100 97 90 102 123 105 105 103
142 132 129 132 131 129 122 118 117 111 104 98 98 98 98 93 91 90 93 96 98 103 101 103 105 96 85 79 78 88 93 96 91 94 90 99 101 95 101 104 107 109 107
136 136 132 136 134 129 126 123 118 115 107 108 101 102 97 89 91 89 89 95 95 97 100 104 101 97 88 83 81 94 99 93 91 102 124 103 105 95 101 104 105 108 108
137 143 133 138 134 130 130 125 126 116 117 107 106 102 93 90 91 90 92 92 92 92 95 97 98 94 91 90 93 105 96 97 107 83 118 120 118 105 97 103 107 106 113
146 143 136 138 138 135 131 130 125 123 117 117 108 104 93 88 91 94 97 97 98 97 97 96 97 99 96 90 101 115 95 77 107 109 122 115 108 111 109 107 106 109 112
145 144 137 138 137 139 137 132 127 123 121 121 113 109 105 96 92 94 96 98 98 93 90 89 89 94 97 93 117 115 99 85 122 122 116 112 111 113 110 111 110 109 112
141 143 138 139 139 146 135 133 130 128 122 117 113 111 106 107 101 105 107 105 98 90 85 85 90 95 104 100 116 118 95 85 141 116 114 110 112 112 111 109 109 110 111
141 143 143 143 144 143 139 137 136 127 124 119 111 105 109 109 112 116 114 110 103 95 87 80 76 76 88 103 112 116 93 102 132 119 120 118 115 112 113 109 112 112 113
148 147 147 150 149 149 145 144 139 133 125 121 120 118 115 113 119 119 118 112 103 101 95 85 75 72 84 109 125 124 95 102 141 122 128 122 123 117 112 111 111 115 113
148 149 155 156 154 152 154 148 149 140 137 134 130 120 117 120 131 129 113 124 115 106 96 84 77 61 83 115 130 133 108 130 154 151 139 133 128 124 122 120 121 122 117
152 155 162 160 159 158 161 160 153 149 143 129 122 131 161 136 154 154 156 166 142 149 59 37 3 33 102 145 178 162 129 133 141 136 141 138 133 130 129 123 123 118 125
158 160 166 166 166 161 167 159 156 158 151 153 156 154 117 146 189 182 183 173 187 189 137 132 74 134 308 283 227 199 167 182 163 145 144 144 141 138 133 129 126 129 126
169 168 170 171 172 170 177 165 162 171 184 181 168 102 141 140 140 161 218 198 70 167 195 235 323 42 54 34 168 248 213 173 163 137 145 151 153 146 144 140 135 135 139
178 174 174 173 174 176 186 186 184 195 196 202 176 158 138 84 202 193 197 201 161 131 102 96 81 84 47 67 73 117 147 157 153 145 134 154 159 153 151 153 153 150 152
189 175 174 173 175 176 181 188 196 221 196 204 180 163 155 210 207 185 184 171 212 263 162 115 148 108 48 51 59 72 155 151 147 131 124 145 164 166 157 164 166 168 163
191 171 172 173 175 175 188 179 176 161 165 171 196 164 164 155 169 184 164 155 119 156 157 156 166 220 193 210 94 84 134 144 148 138 123 130 145 167 184 183 178 174 176
192 163 171 173 178 181 185 192 190 176 174 181 171 179 170 178 173 191 163 157 174 236 214 194 178 193 191 178 128 130 140 131 154 140 143 140 125 130 155 179 194 195 191
188 164 168 174 180 186 191 196 196 193 185 218 197 197 190 189 191 192 156 176 175 156 199 205 213 208 217 224 177 138 140 156 127 168 172 159 141 146 141 143 163 190 202
177 170 170 178 182 189 192 195 205 207 207 231 235 201 201 183 183 198 192 133 139 151 152 176 137 137 137 166 180 164 124 132 147 170 173 175 159 156 147 135 153 159 170
176 173 176 181 183 183 184 182 194 205 213 226 227 227 196 186 183 190 207 196 179 198 178 158 136 131 122 116 138 122 151 139 116 146 164 177 174 168 170 153 160 161 174
172 175 178 175 181 185 185 190 193 201 207 214 222 228 198 186 187 194 202 207 199 210 180 172 176 154 147 138 149 103 20 68 178 116 161 167 164 178 178 164 172 183 179
172 176 178 182 181 187 190 193 197 202 214 215 214 220 202 192 198 210 206 212 205 185 186 181 184 167 151 138 148 148 97 209 164 172 150 161 157 163 156 151 177 189 172
178 180 184 184 189 190 189 190 193 204 211 211 211 210 215 211 219 216 208 214 210 198 199 201 178 171 162 158 176 136 139 158 139 40 152 146 166 170 164 175 185 184 179
178 179 183 185 188 189 188 193 197 206 214 216 210 209 214 217 220 217 214 210 209 206 203 195 192 179 176 181 185 176 178 192 166 128 206 187 178 189 184 191 189 185 191
178 178 180 184 187 192 194 199 203 208 212 211 218 215 213 218 221 213 214 210 211 206 204 211 211 202 191 192 207 211 191 182 205 191 158 200 199 198 200 193 195 190 196
Height
810 811 813 814 816 819 820 822 823 824 826 827 828 828 829 829 829 831 832 833 834 836 837 837 838 838 838 838 839 840 841 842 843 845 845 845 846 848 851 853 854 855 856
808 812 813 816 819 821 822 824 826 827 828 829 830 831 831 831 832 833 834 836 837 838 838 839 839 839 839 840 841 842 843 844 845 846 847 848 849 850 852 853 855 856 858
808 812 814 818 821 823 824 826 828 829 830 832 833 833 833 833 834 835 836 837 838 839 840 840 840 840 840 840 842 843 844 846 847 847 849 850 852 853 854 855 856 857 859
809 813 814 818 821 824 826 829 830 831 833 834 835 836 836 837 837 839 839 840 840 840 841 841 842 842 842 842 843 845 845 848 849 847 851 852 854 855 856 857 858 860 860
810 814 816 819 822 825 828 830 832 834 835 837 838 839 839 840 841 842 842 843 843 843 843 843 844 844 844 844 845 846 847 849 850 852 853 854 855 857 858 860 860 862 863
810 815 817 820 824 827 829 832 834 835 837 839 840 841 842 843 844 844 844 844 845 845 845 845 845 845 846 846 846 847 849 849 852 853 854 855 856 858 860 862 863 864 865
810 815 819 822 825 829 830 833 835 837 839 840 841 842 843 845 846 846 846 846 846 846 846 846 846 846 847 848 848 849 850 852 853 854 854 856 857 860 862 863 865 866 866
810 815 820 824 827 830 832 835 837 838 840 842 843 845 846 846 848 848 848 848 848 848 848 848 848 848 848 849 850 851 852 853 854 856 855 857 859 860 862 864 866 868 869
811 816 820 825 828 830 833 836 838 840 842 844 846 847 848 848 848 850 851 851 849 849 849 850 850 850 850 851 851 853 854 855 855 856 857 858 860 861 863 865 867 870 871
811 817 821 826 828 831 834 837 840 841 843 844 846 847 848 850 851 851 853 853 852 851 850 850 851 851 852 852 852 853 855 855 857 858 859 860 862 863 865 867 869 871 873
812 816 821 825 828 832 834 837 840 842 844 844 845 848 849 850 851 852 853 854 852 852 851 851 852 853 853 855 855 854 856 856 857 857 859 861 863 865 866 868 870 872 874
810 815 820 824 828 832 834 837 840 842 843 845 847 848 848 850 851 852 854 854 853 853 853 853 852 855 854 854 857 856 858 859 859 860 860 861 863 866 868 869 871 873 875
808 813 818 822 827 831 833 837 840 841 843 845 846 845 845 847 850 853 854 855 854 854 854 854 853 855 855 854 856 856 858 859 861 861 862 864 864 867 869 871 873 874 876
806 811 816 820 825 830 833 835 837 840 841 845 844 844 845 845 849 853 854 855 854 855 855 854 853 856 856 854 853 856 857 860 861 861 863 865 866 867 870 871 872 874 875
802 807 812 817 822 828 832 833 836 838 841 843 844 845 848 850 851 852 852 855 855 855 854 854 855 856 856 856 856 855 855 860 861 861 863 866 868 868 869 871 872 873 874
799 804 809 814 820 825 830 833 836 837 841 842 843 847 851 850 853 853 852 854 852 853 854 855 855 855 856 856 855 857 860 859 861 862 864 866 868 870 870 870 871 873 875
794 799 806 812 817 823 828 832 834 836 840 843 843 846 849 850 852 852 853 854 854 853 854 856 857 857 857 857 857 857 859 860 862 865 866 867 868 868 870 871 872 872 872
792 794 802 809 815 820 825 829 832 836 838 841 842 845 847 848 851 851 852 852 853 854 855 856 856 856 857 857 858 859 860 862 863 864 865 867 869 868 869 871 871 872 873
787 791 798 805 811 816 822 827 831 834 837 838 841 842 844 846 849 850 852 852 853 853 853 855 856 857 857 857 858 858 860 860 861 865 866 868 868 868 870 870 871 872 874
782 787 794 800 806 813 818 824 829 833 835 837 839 840 841 844 846 847 849 850 851 852 853 855 855 856 857 857 857 859 860 859 862 865 866 866 869 870 871 870 872 872 873
777 783 789 794 801 809 815 820 826 829 833 835 836 838 840 842 844 846 848 849 851 851 852 853 854 855 856 857 859 860 860 861 863 863 866 867 870 870 870 871 872 872 872
771 777 784 789 796 803 810 815 821 826 830 832 834 836 837 840 842 844 847 849 850 851 852 853 853 854 856 858 859 859 863 863 863 864 865 866 868 870 871 872 871 871 873
767 771 777 785 790 797 805 812 818 824 827 829 831 833 835 837 839 841 844 847 848 850 851 852 852 853 854 857 858 859 864 866 863 864 864 865 868 869 870 870 871 872 874
762 768 774 780 786 793 800 807 811 815 818 822 826 829 832 835 837 839 842 844 846 848 849 850 851 852 853 855 856 857 859 859 863 867 864 866 867 868 869 870 871 873 874
757 763 769 775 782 789 795 801 806 810 814 819 822 825 828 831 833 835 839 841 844 846 848 849 850 851 852 853 854 855 857 859 860 862 867 865 868 867 868 869 870 872 874
750 758 765 771 777 783 789 795 800 805 810 814 818 821 823 826 829 832 835 838 841 843 845 847 848 850 851 852 853 854 855 857 858 859 861 864 864 866 866 867 868 870 872